Notices

What's New in latest Release from April 7th, 2021:

- Updated Glossary, including Speed of Maximum Gust, and Total Hourly Precipitation

- Updated national and regional climate services offices contacts and prices information

- Addition of station inventory lists for 1981-2010, 1971-2000, and 1961-1990 Normals.

If you haven't already, please take our survey and provide feedback about our website: https://eccc.sondage-survey.ca/f/LanguageSelection.aspx?s=442ca660-fcf1-47c0-95a9-59707d6fd709

Hourly Data Report for February 03, 2003

TORONTO CITY
ONTARIO

43°40'00.000" N
79°24'00.000" W
112.50 m
6158355
71508
XTO

Download Data

Hourly Data (February 2003)
Hourly Data Report for February 3, 2003
TIME
LST
Temp Definition
°C
Dew Point Definition
°C
Rel Hum Definition
%
Precip. Amount Definition
mm

Wind Dir Definition
10's deg

Wind Spd Definition
km/h
Visibility Definition
km
Stn Press Definition
kPa
Hmdx Definition


Wind Chill Definition


Weather Definition


00:00 -0.9 -3.5 82     0 LegendMM 100.13     LegendNANA
01:00
02:00
03:00 -2.4 -5.1 82     0 LegendMM 100.13     LegendNANA
04:00 -2.3 -5.4 79     0 LegendMM 100.08     LegendNANA
05:00 -2.5 -5.9 77     0 LegendMM 100.06     LegendNANA
06:00 -2.5 -6.4 75     0 LegendMM 100.04     LegendNANA
07:00 -2.4 -6.7 72     0 LegendMM 100.11     LegendNANA
08:00 -2.4 -7.0 71     0 LegendMM 99.99     LegendNANA
09:00 -2.4 -5.8 77     0 LegendMM 99.96     LegendNANA
10:00 -2.0 -4.6 82     0 LegendMM 99.82     LegendNANA
11:00 -1.4 -3.8 84     0 LegendMM 99.72     LegendNANA
12:00 -1.0 -3.4 84     0 LegendMM 99.64     LegendNANA
13:00 -1.0 -3.3 84     0 LegendMM 99.52     LegendNANA
14:00 -1.4 -3.7 84     0 LegendMM 99.32     LegendNANA
15:00
16:00 -1.6 -3.4 87     0 LegendMM 99.16     LegendNANA
17:00 -1.6 -3.1 89     0 LegendMM 99.04     LegendNANA
18:00 -1.0 -2.4 90     0 LegendMM 98.96     LegendNANA
19:00 0.1 -1.0 92     0 LegendMM 98.86     LegendNANA
20:00 0.4 -0.4 94     0 LegendMM 98.77     LegendNANA
21:00
22:00 0.9 0.5 97     0 LegendMM 98.36     LegendNANA
23:00 1.3 1.0 98     0 LegendMM 98.19     LegendNANA

Notes on Data Quality.

Legend

  • E = Estimated
  • M = Missing
  • NA = Not Available*
  • [empty] = Indicates an unobserved value
Date modified: